KK6LVQ-13 Weather Reports


time (UTC)temp
C
wind
direction
speed
KPH
gust
KPH
rain 1hr
cm
rain 24hr
cm
rain mn
cm
humidity
%
barometer
mb
20260503212505 13 313 4.8 4.8 0.00 0.05 0.05 75 1018.3
20260503212002 14 144 1.6 3.2 0.00 0.05 0.05 74 1018.3
20260503211459 14 258 4.8 4.8 0.00 0.05 0.05 73 1018.3
20260503210955 15 292 8.0 9.7 0.00 0.05 0.05 70 1018.5
20260503210451 15 209 3.2 3.2 0.00 0.05 0.05 72 1018.2
20260503205946 15 229 1.6 1.6 0.00 0.05 0.05 70 1018.4
20260503205443 15 127 3.2 3.2 0.00 0.05 0.05 70 1018.3
20260503204939 15 281 3.2 4.8 0.00 0.05 0.05 70 1018.3
20260503204437 15 135 3.2 3.2 0.00 0.05 0.05 69 1018.4
20260503203933 15 309 3.2 3.2 0.00 0.05 0.05 69 1018.3
20260503203431 15 150 1.6 1.6 0.00 0.05 0.05 69 1018.3
20260503202928 15 351 1.6 3.2 0.00 0.05 0.05 69 1018.3
20260503202426 14 243 1.6 1.6 0.00 0.05 0.05 72 1018.3
20260503201924 14 275 6.4 8.0 0.00 0.05 0.05 71 1018.6
20260503201421 15 200 1.6 1.6 0.00 0.05 0.05 73 1018.5
20260503200918 15 332 1.6 3.2 0.00 0.05 0.05 72 1018.4
20260503200414 15 241 1.6 3.2 0.00 0.05 0.05 71 1018.6
20260503195911 14 122 4.8 4.8 0.00 0.05 0.05 73 1018.7
20260503195409 14 297 3.2 4.8 0.00 0.05 0.05 74 1018.7
20260503194905 15 224 3.2 3.2 0.00 0.05 0.05 70 1018.6
20260503194402 14 69 1.6 1.6 0.00 0.05 0.05 72 1018.7
20260503193858 14 246 4.8 4.8 0.00 0.05 0.05 72 1018.7
20260503193353 13 220 3.2 4.8 0.00 0.05 0.05 74 1018.8
20260503192849 13 211 1.6 3.2 0.00 0.05 0.05 73 1018.9
20260503192345 14 287 3.2 3.2 0.00 0.05 0.05 75 1018.8
20260503191842 14 237 1.6 1.6 0.00 0.05 0.05 75 1018.6
20260503191339 14 191 1.6 1.6 0.00 0.05 0.05 74 1018.6
20260503190835 14 139 1.6 1.6 0.00 0.05 0.05 73 1018.8
20260503190333 13 72 0.0 0.0 0.00 0.05 0.05 76 1018.8
20260503185830 13 352 1.6 1.6 0.00 0.05 0.05 77 1018.7
20260503185325 13 104 0.0 0.0 0.00 0.05 0.05 76 1018.8
20260503184820 13 319 3.2 3.2 0.00 0.05 0.05 75 1018.9
20260503184316 13 232 1.6 1.6 0.00 0.05 0.05 73 1018.9
20260503183812 13 156 1.6 3.2 0.00 0.05 0.05 75 1018.8
20260503183310 13 290 0.0 0.0 0.00 0.05 0.05 79 1018.6
20260503182807 13 103 0.0 0.0 0.00 0.05 0.05 79 1018.9
20260503182306 13 254 1.6 1.6 0.00 0.05 0.05 75 1018.7
20260503181803 13 115 1.6 3.2 0.00 0.05 0.05 76 1018.8
20260503181300 13 99 3.2 3.2 0.00 0.05 0.05 75 1018.7
20260503180756 14 176 0.0 0.0 0.00 0.05 0.05 77 1018.6
20260503180254 15 9 0.0 0.0 0.00 0.05 0.05 75 1018.7
20260503175750 13 97 0.0 0.0 0.00 0.05 0.05 78 1018.6
20260503175249 13 49 1.6 1.6 0.00 0.05 0.05 81 1018.7
20260503174744 13 15 0.0 0.0 0.00 0.05 0.05 84 1018.8
20260503174242 13 12 0.0 0.0 0.00 0.05 0.05 83 1019.0
20260503173737 13 85 0.0 0.0 0.00 0.05 0.05 82 1018.9
20260503173233 12 225 1.6 3.2 0.00 0.05 0.05 82 1018.7
20260503172730 12 43 0.0 0.0 0.00 0.05 0.05 88 1018.9
20260503172227 12 355 1.6 1.6 0.00 0.05 0.05 85 1018.8
20260503171723 12 67 0.0 1.6 0.00 0.05 0.05 88 1018.8
20260503171221 12 79 0.0 0.0 0.00 0.05 0.05 91 1018.9
20260503170718 12 180 0.0 0.0 0.00 0.05 0.05 91 1018.9
20260503170215 11 137 0.0 0.0 0.00 0.05 0.05 93 1018.9
20260503160136 11 200 0.0 0.0 0.13 0.05 0.05 96 1018.7
20260503150606 11 195 0.0 0.0 0.00 0.00 0.00 90 1018.2
20260503130956 10 96 0.0 0.0 0.00 0.00 0.00 95 1016.8
20260503130453 10 82 0.0 0.0 0.00 0.00 0.00 95 1016.8
20260503110338 10 21 0.0 0.0 0.00 0.00 0.00 95 1016.7
20260503090224 10 285 0.0 0.0 0.00 0.00 0.00 92 1016.8
20260503081151 10 337 0.0 1.6 0.00 0.00 0.00 91 1017.4
20260503080646 10 345 1.6 3.2 0.00 0.00 0.00 91 1017.5
20260503080144 10 341 3.2 3.2 0.00 0.00 0.00 91 1017.4
20260503072621 10 343 0.0 0.0 0.00 0.00 0.00 90 1017.3
20260503072118 10 285 3.2 4.8 0.00 0.00 0.00 90 1017.2
20260503071614 10 323 1.6 1.6 0.00 0.00 0.00 90 1017.1
20260503071111 10 309 1.6 1.6 0.00 0.00 0.00 90 1017.3
20260503070608 10 296 3.2 3.2 0.00 0.00 0.00 90 1017.3
20260503070106 10 312 1.6 1.6 0.00 0.00 0.00 90 1017.3
20260503055015 10 302 6.4 8.0 0.00 0.00 0.00 89 1017.5
20260503054511 10 341 1.6 1.6 0.00 0.00 0.00 89 1017.4
20260503054009 10 15 0.0 1.6 0.00 0.00 0.00 89 1017.4
20260503053506 10 40 0.0 1.6 0.00 0.00 0.00 89 1017.4
20260503053004 10 345 0.0 0.0 0.00 0.00 0.00 89 1017.7
20260503052501 10 340 1.6 1.6 0.00 0.00 0.00 89 1017.5
20260503051956 11 25 1.6 1.6 0.00 0.00 0.00 89 1017.6
20260503051452 11 6 1.6 1.6 0.00 0.00 0.00 89 1017.8
20260503050950 11 22 1.6 1.6 0.00 0.00 0.00 89 1017.6
20260503050445 11 270 1.6 3.2 0.00 0.00 0.00 89 1017.5
20260503045943 11 30 1.6 1.6 0.00 0.00 0.00 89 1017.7
20260503045441 11 301 4.8 4.8 0.00 0.00 0.00 89 1017.6
20260503044937 11 75 0.0 1.6 0.00 0.00 0.00 89 1017.7
20260503044434 11 329 3.2 3.2 0.00 0.00 0.00 89 1017.4
20260503043932 11 2 1.6 3.2 0.00 0.00 0.00 89 1017.5
20260503043428 11 18 0.0 1.6 0.00 0.00 0.00 89 1017.4
20260503042924 11 358 3.2 3.2 0.00 0.00 0.00 89 1017.5
20260503042421 11 300 6.4 9.7 0.00 0.00 0.00 88 1017.5
20260503041918 11 358 3.2 3.2 0.00 0.00 0.00 88 1017.4
20260503041414 11 2 3.2 3.2 0.00 0.00 0.00 88 1017.2
20260503040912 11 350 3.2 3.2 0.00 0.00 0.00 88 1017.2
20260503040409 11 326 4.8 4.8 0.00 0.00 0.00 88 1017.4
20260503035906 11 357 3.2 3.2 0.00 0.00 0.00 88 1017.0
20260503035403 11 202 3.2 4.8 0.00 0.00 0.00 88 1016.9
20260503034901 11 326 1.6 3.2 0.00 0.00 0.00 88 1016.8
20260503034358 11 340 4.8 4.8 0.00 0.00 0.00 88 1016.9
20260503033855 11 4 1.6 1.6 0.00 0.00 0.00 88 1016.8
20260503033353 11 9 1.6 1.6 0.00 0.00 0.00 88 1016.7
20260503032850 11 349 1.6 1.6 0.00 0.00 0.00 88 1016.6
20260503032349 11 341 3.2 4.8 0.00 0.00 0.00 88 1016.5
20260503031846 11 320 3.2 3.2 0.00 0.00 0.00 88 1016.5
20260503031343 11 347 3.2 4.8 0.00 0.00 0.00 88 1016.5
20260503030840 11 312 3.2 3.2 0.00 0.00 0.00 88 1016.7
20260503030336 11 18 4.8 4.8 0.00 0.00 0.00 88 1016.6
20260503025833 11 314 3.2 3.2 0.00 0.00 0.00 88 1016.3
20260503025331 11 47 1.6 3.2 0.00 0.00 0.00 88 1016.5
20260503024828 11 32 1.6 1.6 0.00 0.00 0.00 88 1016.3
20260503024324 11 329 4.8 8.0 0.00 0.00 0.00 88 1016.4
20260503023821 11 299 4.8 8.0 0.00 0.00 0.00 88 1016.3
20260503023318 11 48 1.6 1.6 0.00 0.00 0.00 88 1016.2
20260503022814 11 328 4.8 4.8 0.00 0.00 0.00 88 1016.2
20260503022309 11 304 4.8 4.8 0.00 0.00 0.00 88 1016.1
20260503021806 11 315 4.8 8.0 0.00 0.00 0.00 88 1016.1
20260503021302 12 336 4.8 8.0 0.00 0.00 0.00 88 1016.1
20260503020800 12 344 6.4 9.7 0.00 0.00 0.00 87 1016.1
20260503020257 12 308 4.8 8.0 0.00 0.00 0.00 87 1016.1
20260503015753 12 345 6.4 9.7 0.00 0.00 0.00 87 1016.2
20260503015250 12 300 9.7 11.3 0.00 0.00 0.00 86 1016.1
20260503014746 12 16 1.6 3.2 0.00 0.00 0.00 86 1016.4
20260503014244 12 346 4.8 4.8 0.00 0.00 0.00 85 1016.2
20260503013741 12 348 4.8 4.8 0.00 0.00 0.00 85 1016.4
20260503013238 12 333 4.8 8.0 0.00 0.00 0.00 85 1016.3
20260503012736 12 34 6.4 8.0 0.00 0.00 0.00 85 1016.3
20260503012233 13 339 4.8 4.8 0.00 0.00 0.00 85 1016.4
20260503011729 13 282 4.8 4.8 0.00 0.00 0.00 84 1016.4
20260503011227 13 349 8.0 9.7 0.00 0.00 0.00 84 1016.3
20260503010722 13 336 3.2 3.2 0.00 0.00 0.00 84 1016.3
20260503010220 13 37 6.4 9.7 0.00 0.00 0.00 83 1016.4
20260503005717 13 8 6.4 9.7 0.00 0.00 0.00 83 1016.5
20260503005214 14 31 8.0 11.3 0.00 0.00 0.00 82 1016.3
20260503004710 14 311 6.4 9.7 0.00 0.00 0.00 82 1016.1
20260503004209 14 330 8.0 9.7 0.00 0.00 0.00 82 1016.2
20260503003706 14 326 4.8 8.0 0.00 0.00 0.00 81 1016.3
20260503003203 14 309 9.7 11.3 0.00 0.00 0.00 81 1016.3
20260503002659 15 193 6.4 9.7 0.00 0.00 0.00 81 1016.3
20260503002156 15 343 11.3 12.9 0.00 0.00 0.00 80 1016.4
20260503001652 15 41 4.8 4.8 0.00 0.00 0.00 80 1016.3
20260503001149 15 284 6.4 8.0 0.00 0.00 0.00 79 1016.3
20260503000647 15 0 3.2 3.2 0.00 0.00 0.00 78 1016.4
20260503000144 16 317 6.4 11.3 0.00 0.00 0.00 77 1016.4
20260502235640 16 343 3.2 4.8 0.00 0.00 0.00 77 1016.3
20260502235139 16 294 6.4 8.0 0.00 0.00 0.00 76 1016.4
20260502234634 16 295 8.0 9.7 0.00 0.00 0.00 77 1016.4
20260502234132 17 90 6.4 8.0 0.00 0.00 0.00 76 1016.3
20260502233627 16 320 8.0 11.3 0.00 0.00 0.00 76 1016.4
20260502233124 16 263 4.8 8.0 0.00 0.00 0.00 76 1016.4
20260502232620 16 336 8.0 9.7 0.00 0.00 0.00 76 1016.5
20260502232118 17 324 8.0 9.7 0.00 0.00 0.00 75 1016.5
20260502231614 17 296 4.8 4.8 0.00 0.00 0.00 76 1016.5
20260502231113 17 293 8.0 11.3 0.00 0.00 0.00 74 1016.7
20260502230610 17 315 8.0 9.7 0.00 0.00 0.00 74 1016.7
20260502230109 17 12 9.7 9.7 0.00 0.00 0.00 74 1016.9
20260502225604 17 278 6.4 9.7 0.00 0.00 0.00 74 1016.8
20260502225101 18 290 4.8 8.0 0.00 0.00 0.00 75 1016.8
20260502224557 17 290 3.2 4.8 0.00 0.00 0.00 74 1017.0
20260502224054 18 339 4.8 4.8 0.00 0.00 0.00 73 1017.0
20260502223552 17 345 8.0 9.7 0.00 0.00 0.00 74 1017.1
20260502223050 17 308 6.4 8.0 0.00 0.00 0.00 74 1017.1
20260502222547 17 287 4.8 4.8 0.00 0.00 0.00 75 1017.4
20260502222043 17 336 4.8 8.0 0.00 0.00 0.00 74 1017.3
20260502221539 18 291 4.8 4.8 0.00 0.00 0.00 73 1017.6
20260502221037 17 289 6.4 9.7 0.00 0.00 0.00 74 1017.5
20260502220532 17 297 9.7 12.9 0.00 0.00 0.00 73 1017.8
20260502220029 17 253 6.4 8.0 0.00 0.00 0.00 75 1017.7
20260502215527 17 273 8.0 9.7 0.00 0.00 0.00 75 1017.9
20260502215023 17 318 6.4 8.0 0.00 0.00 0.00 75 1017.9
20260502214520 17 330 6.4 8.0 0.00 0.00 0.00 76 1017.7
20260502214018 17 344 8.0 9.7 0.00 0.00 0.00 75 1017.9
20260502213514 17 47 6.4 8.0 0.00 0.00 0.00 75 1017.9
20260502213013 18 311 6.4 8.0 0.00 0.00 0.00 73 1017.8